Погода в Кременской

Россия / Волгоградская область     49°28′42″N   43°27′23″E
В апреле 2022 года жителям России запретили посещать сайт meteo.paraplan.net по решению Генеральной прокуратуры. Аудитория сайта уменьшилась в 10 раз. Владельцы сайта не видят смысла в поддержке погодного сервера в таких условиях. Сайт будет закрыт в октябре.
темп.,
°C
ветер,
м/с
пор.,
м/с
влажн.,
%
обл.,
%
осадки,
мм/ч
давл.,
гПа
погр.,
м
4 октября, вт
вт400:00+13ююв33575 0.0 101545
03:00+12ююв33635 0.0 101633
06:00+12юв226599 0.0 101621
09:00+15юв4552100 0.0 1017334
12:00+19ююв5739100 0.0 10171405
15:00+16ююв2470100 0.5 1017501
18:00+15юв5682100 0.1 1018469
21:00+13юв578299 0.1 1019274
5 октября, ср
ср500:00+13юв348352 0.0 1019174
03:00+12ю2290100 0.0 101933
06:00+12ю2294100 0.0 102023
09:00+15юз3479100 0.0 1021389
12:00+17зюз3360100 0.0 1021773
15:00+17зюз5647100 0.0 10211054
18:00+14з47450 0.0 1022158
21:00+12зюз37545 0.0 1022154
6 октября, чт
чт600:00+13зюз49575 0.0 1022448
03:00+10з49695 0.0 1023340
06:00+8з59723 0.0 1023362
09:00+11з79555 0.0 1024775
12:00+15з794753 0.0 10231622
15:00+15зсз795272 0.0 10231435
18:00+13зсз5862100 0.0 1024699
21:00+12зюз25665 0.0 1024133
7 октября, пт
пт700:00+11з37715 0.0 1024165
03:00+10з368066 0.0 1024144
06:00+11зюз3575100 0.0 1024150
09:00+14зюз576224 0.0 1024396
12:00+18з67465 0.0 10241247
15:00+20з67405 0.0 10231440
18:00+17зсз35505 0.0 102487
21:00+15сз336036 0.0 102536
8 октября, сб
сб800:00+13ссв226949 0.0 102632
03:00+12св227932 0.0 102625
06:00+11всв348793 0.0 102772
09:00+14в4671100 0.0 1027370
12:00+17вюв4557100 0.0 1026956
15:00+18вюв5550100 0.0 10251190
18:00+16в4759100 0.0 1025212
21:00+14в486998 0.0 1025202